Flag for U.S.A. Weather past 2 weeks in Shreveport, Louisiana, U.S.A.

Now
74 °F

Passing clouds.


Feels Like: 73 °F
Forecast: 69 / 89 °F
Wind: No wind

Location: Shreveport Regional Airport

Current Time: Sep 19, 2014 at 1:24:35 AM

Latest Report: Sep 19, 2014 at 12:56 AM


Visibility: 10 mi

Pressure: 29.92 "Hg

Humidity: 85%

Dew point: 69 °F

Location of ShreveportLocation

Historic Weather in Shreveport — Graph

°F

Shreveport temperature yesterday

Maximum temperature yesterday: 89 °F (at 2:56 PM)
Minimum temperature yesterday: 73 °F (at 2:56 AM)
Average temperature yesterday: 78 °F

Past Weeks' High & Low Weather Summary

 TemperatureHumidityPressure
High95 °F (Sep 4, 3:56 PM)94% (Sep 4, 5:56 AM)30.24 "Hg (Sep 4, 5:56 AM)
Low61 °F (Sep 13, 7:56 AM)41% (Sep 4, 3:56 PM)29.80 "Hg (Sep 10, 5:56 PM)
Average79 °F73%30.00 "Hg
* Reported Sep 3 11:56 PM — Sep 18 11:56 PM, Shreveport, Weather by CustomWeather, © 2014

Note: Actual official high and low records may vary slightly from our data, if they occured in-between our weather recording intervals... More about our weather records

Advertising

Shreveport weather history for previous 24 hours

 ConditionsComfort  
Time TempWeatherWind HumidityBarometerVisibility
11:56 PM
Sep 18
73 °FPassing clouds.No wind88%29.92 "Hg10 mi
10:56 PM75 °FPassing clouds.No wind82%29.93 "Hg10 mi
9:56 PM76 °FPassing clouds.5 mph80%29.92 "Hg10 mi
8:56 PM77 °FPassing clouds.7 mph79%29.90 "Hg10 mi
7:56 PM80 °FBroken clouds.6 mph71%29.87 "Hg10 mi
6:56 PM83 °FBroken clouds.6 mph68%29.85 "Hg10 mi
5:56 PM84 °FBroken clouds.8 mph67%29.85 "Hg10 mi
4:56 PM86 °FBroken clouds.8 mph61%29.84 "Hg10 mi
3:56 PM86 °FBroken clouds.3 mph61%29.84 "Hg10 mi
2:56 PM89 °FBroken clouds.7 mph55%29.87 "Hg10 mi
1:56 PM84 °FCloudy.5 mph67%29.89 "Hg10 mi
12:56 PM82 °FCloudy.3 mph72%29.90 "Hg10 mi
11:56 AM81 °FCloudy.No wind74%29.92 "Hg10 mi
10:56 AM80 °FCloudy.3 mph76%29.93 "Hg10 mi
9:56 AM78 °FMostly cloudy.3 mph82%29.93 "Hg10 mi
8:56 AM75 °FMostly cloudy.9 mph90%29.91 "Hg9 mi
7:56 AM74 °FMostly cloudy.5 mph91%29.90 "Hg8 mi
6:56 AM73 °FMostly cloudy.No wind94%29.89 "Hg8 mi
5:56 AM74 °FOvercast.No wind91%29.88 "Hg9 mi
4:56 AM74 °FOvercast.3 mph91%29.86 "Hg10 mi
3:56 AM74 °FOvercast.3 mph91%29.87 "Hg8 mi
2:56 AM73 °FMostly cloudy.No wind90%29.88 "Hg10 mi
1:56 AM75 °FMostly cloudy.3 mph88%29.88 "Hg10 mi
Weather by CustomWeather, © 2014

See weather overviewHow to use our weather pages